Other Public Products
Issued by NWS Charleston, SC

Current Version | Previous Version | Graphics & Text | Print | Product List | Glossary On
Versions: 1 2 3 4 5 6 7 8 9 10 11 12 13 14 15 16 17 18 19 20 21 22 23 24 25 26 27 28 29 30 31 32 33 34 35 36 37 38 39 40 41 42 43 44 45 46 47 48 49 50
000 FPUS82 KCHS 172127 OPUCHS TEST...KCHS/KSAV Gateway Observations...TEST National Weather Service Charleston SC 400 PM EST WED JAN 17 2018 NOTE: "fair" indicates few or no clouds below 12,000 feet with no significant weather and/or obstructions to visibility. SCZ050-WAZ558-NCZ071-TXZ119-213-PAZ071-DCZ001-FLZ074-172-MI076- NYZ176-178-MAZ016-IL014-TNZ027-NJZ106-GAZ044-MD014-172200- ...Gateway Observations for Charleston International... CITY SKY/WX TMP DP RH WIND PRES REMARKS Chas Airport CLOUDY 44 38 79 NW12 30.15S Seattle CLOUDY 56 39 53 SE9 29.79F Charlotte FLURRIES 29 26 89 N12 30.22R WCI 19 Dallas DFW SUNNY 35 2 24 VRB3 30.63F Dallas Love SUNNY 34 2 25 SW6 30.65F WCI 29 Philladelphia CLOUDY 26 11 52 NW14 30.25F WCI 14 Wash National CLOUDY 26 8 46 N20 30.33F WCI 12 Baltimore PTSUNNY 24 7 48 NW14 30.30S WCI 12 Miami PTSUNNY 71 49 45 NW8 30.15S Detroit FAIR 23 13 65 SW16 30.34F WCI 10 Newark CLOUDY 31 23 72 NW12 30.20R WCI 22 Laguardia CLOUDY 33 28 81 NW15 30.18R WCI 23 J F K CLOUDY 34 31 88 NW12 30.19R WCI 25 Boston Logan LGT SNOW 33 31 92 N7 30.13S FOG WCI 27 Ft. Lauderdale CLOUDY 68 49 50 NW13G18 30.15R Chicago O`Hare FAIR 19 9 65 SW17 30.39F WCI 4 Chicago Midway FAIR 20 9 62 W17 30.42F WCI 5 Houston Bush MOSUNNY 38 15 39 N7 30.64F WCI 33 Houston Hobby FAIR 36 15 42 N9 30.64F WCI 29 Nashville FAIR 21 10 62 N8 30.62S WCI 11 Atlanta FAIR 25 9 50 NW22G33 30.35R WCI 10 $$ GAZ044-118-TXZ119-213-NCZ071-DCZ001-MDZ014-506-PAZ021-071-NJZ106- NYZ176-178-MAZ106-OHZ011-021-055-MIZ076-KYZ091-ILZ014-INZ047- MNZ060-ONZ431-172200- ...Gateway Observations for Savannah International... CITY SKY/WX TMP DP RH WIND PRES REMARKS Savannah Arpt FAIR 45 29 53 NW16 30.22S Atlanta FAIR 25 9 50 NW22G33 30.35R WCI 10 Charlotte FLURRIES 29 26 89 N12 30.22R WCI 19 Dallas DFW SUNNY 35 2 24 VRB3 30.63F Houston Bush MOSUNNY 38 15 39 N7 30.64F WCI 33 Wash National CLOUDY 26 8 46 N20 30.33F WCI 12 Wash Dulles PTSUNNY 23 7 50 NW12 30.33F WCI 12 Baltimore PTSUNNY 24 7 48 NW14 30.30S WCI 12 Philadelphia CLOUDY 26 11 52 NW14 30.25F WCI 14 Newark CLOUDY 31 23 72 NW12 30.20R WCI 22 Laguardia CLOUDY 33 28 81 NW15 30.18R WCI 23 J F K CLOUDY 34 31 88 NW12 30.19R WCI 25 Boston LGT SNOW 33 31 92 N7 30.13S FOG WCI 27 Pittsburg FLURRIES 14 6 70 W7 30.37F WCI 4 Akron FAIR 13 4 67 SW12 30.39S WCI -1 Cleveland CLOUDY 20 9 62 SW10 30.42S WCI 9 Cincinnati PTSUNNY 19 11 70 SW6 30.50S WCI 11 Columbus FAIR 11 6 77 SW9 30.49F WCI -1 Detroit FAIR 23 13 65 SW16 30.34F WCI 10 Chicago O`Hare FAIR 19 9 65 SW17 30.39F WCI 4 Minneapolis FAIR 26 11 52 SW9 30.13F WCI 17 Indianapolis FAIR 18 9 68 SW10 30.51F WCI 6 Toronto Canada PTCLDY 21 9 58 W18 30.23F WCI 6 $$

USA.gov is the U.S. government's official web portal to all federal, state and local government web resources and services.